Orbital Elements at Epoch 2459200.5 (2020-Dec-17.0) TDB
Reference: JPL 26 (heliocentric ecliptic J2000)
Element | Value | Uncertainty (1-sigma) | Units |
e | .03215571547807724 | 6.7778e-08 | |
a | 3.008937218247288 | 2.1707e-08 | au |
q | 2.912182689165931 | 2.0448e-07 | au |
i | 10.45753644098789 | 7.0293e-06 | deg |
node | 39.43730894688556 | 2.5673e-05 | deg |
peri | 146.3922528452833 | 6.3063e-05 | deg |
M | 256.9294531793161 | 5.8496e-05 | deg |
tp | 2459746.320943208419 (2022-Jun-15.82094321) | 0.00031167 | TDB |
period | 1906.417940101573 5.22 | 2.0629e-05 5.648e-08 | d yr |
n | .1888358226322709 | 2.0434e-09 | deg/d |
Q | 3.105691747328645 | 2.2405e-08 | au |
|
| | Orbit Determination Parameters
Additional Information
|